Regional Weather Roundup
Issued by NWS Sioux Falls, SD

Home | Current Version | Previous Version | Graphics & Text | Print | Product List | Glossary On
Versions: 1 2 3 4 5 6 7 8 9 10 11 12 13 14 15 16 17 18 19 20 21 22 23 24 25 26 27 28 29 30 31 32 33 34 35 36 37 38 39 40 41 42 43 44 45 46 47 48 49 50
000
ASUS43 KFSD 221602
RWRFSD

WEATHER ROUNDUP FOR SE SOUTH DAKOTA/SW MINNESOTA/NW IOWA
NATIONAL WEATHER SERVICE SIOUX FALLS SD
1000 AM CST MON DEC 22 2014

NOTE: "FAIR" INDICATES FEW OR NO CLOUDS BELOW 12,000 FEET WITH NO
SIGNIFICANT WEATHER AND OR OBSTRUCTIONS TO VISIBILITY.


SDZ038>040-050-052>070-221700-
SOUTHEAST SOUTH DAKOTA

CITY           SKY/WX    TMP DP  RH WIND       PRES   REMARKS
CHAMBERLAIN    NOT AVBL
HURON          CLOUDY    30  28  92 NW6       29.44S WCI  24
MADISON        LGT RAIN  36  36 100 SW8       29.43R VSB<1/4
MITCHELL       CLOUDY    35  33  92 W6        29.46R
SIOUX FALLS    LGT RAIN  40  40 100 S7        29.45S FOG
WINNER         LGT RAIN  39  34  82 NW20G26   29.48S
YANKTON        CLOUDY    37  36  93 W10       29.47S
$$

MNZ071-072-080-081-089-090-097-098-221700-
SOUTHWEST MINNESOTA

CITY           SKY/WX    TMP DP  RH WIND       PRES   REMARKS
FAIRMONT       CLOUDY    37  34  87 SE20      29.56S
JACKSON        CLOUDY    37  36  93 SE16      29.54S FOG
LUVERNE        DRIZZLE   39  37  93 S13       29.47S
MARSHALL       CLOUDY    39  36  87 SE14      29.49S
MONTEVIDEO     LGT RAIN  37  37 100 S14       29.52S
PIPESTONE      DRIZZLE   37  37 100 S13       29.44S
REDWOOD FALLS  LGT RAIN  39  37  92 SE17      29.53S FOG
TRACY          DRIZZLE   39  38  96 SE14      29.50S
WINDOM         DRIZZLE   37  37 100 SE15G21   29.52S
WORTHINGTON    CLOUDY    37 -11  12 SE17      29.50S
$$

IAZ001>003-012>014-020>022-031-032-NEZ013-014-SDZ071-221700-
NORTHWEST IOWA

CITY           SKY/WX    TMP DP  RH WIND       PRES   REMARKS
DENISON        CLOUDY    39  39 100 SE13G20   29.50F FOG
ESTHERVILLE    MIX PCPN  37  37 100 SE18      29.54S FOG
SIOUX CITY     LGT RAIN  43  41  93 S13       29.48F FOG
SPENCER        LGT RAIN  39  37  92 SE18      29.52F FOG
$$

ABBREVIATIONS USED IN REMARKS
   TC - TEMPERATURE IN CELSIUS
  WCI - WIND CHILL INDEX
   HX - HEAT INDEX
  VSB - VISIBILITY




USA.gov is the U.S. government's official web portal to all federal, state and local government web resources and services.